Tracking 29892 objects as of 21-Nov-2024
HD Live streaming from Space Station
objects crossing your sky now

STARLINK-4303

Track STARLINK-4303 now!
10-day predictions
STARLINK-4303 is classified as:


NORAD ID: 53544
Int'l Code: 2022-101T
Perigee: 545.9 km
Apogee: 547.8 km
Inclination: 53.2 °
Period: 95.4 minutes
Semi major axis: 6917 km
RCS: Unknown
Launch date: August 19, 2022
Source: United States (US)
Launch site: AIR FORCE EASTERN TEST RANGE (AFETR)
Your satellite tracking list
Your tracking list is empty




NASA's NSSDC Master Catalog

Two Line Element Set (TLE):
1 53544U 22101T   24325.60827152 -.00000318  00000-0 -18797-5 0  9995
2 53544  53.2168  32.3523 0001370 106.8332 253.2810 15.08843598125404
Source of the keplerian elements: AFSPC